Pau, France

5:29 PM CEST on September 24, 2017 (GMT +0200)
Pau / Pyrenees

Weather History for LFBP - April, 2013

Change the Weather History Date:

Monday, April 29, 2013

  Actual Average Record
Temperature  
Mean Temperature 48 °F -  
Max Temperature 55 °F 67 °F 82 °F (2005)
Min Temperature 42 °F 50 °F 37 °F (2017)
Degree Days  
Heating Degree Days 16    
Moisture  
Dew Point 41 °F    
Average Humidity 78    
Maximum Humidity 100    
Minimum Humidity 51    
Precipitation  
Precipitation 0.00 in - - ()
Sea Level Pressure  
Sea Level Pressure 30.01 in    
Wind  
Wind Speed 2 mph ()    
Max Wind Speed 8 mph    
Max Gust Speed -    
Visibility 6.1 miles    
Events Rain    
Averages and records for this station are not official NWS values.
T = Trace of Precipitation, MM = Missing Value Source: Averaged Metar Reports

Daily Weather History Graph

Daily Weather History Graph

Search for Another Location

Airport or City:

Trip Planner

Search our weather history database for the weather conditions in past years. The results will help you decide how hot, cold, wet, or windy it might be!

Date:

Astronomy

Apr. 29, 2013 Rise Set
Actual Time 6:57 AM CEST 9:01 PM CEST
Civil Twilight 6:26 AM CEST 9:32 PM CEST
Nautical Twilight 5:48 AM CEST 10:10 PM CEST
Astronomical Twilight 5:06 AM CEST 10:52 PM CEST
Moon 12:19 AM CEST (4/29) 9:58 AM CEST (4/29)
Length of Visible Light 15h 05m
Length of Day
14h 03m
Waning Gibbous, 82% of the Moon is Illuminated
Apr 29
Waning Gibbous
May 2
Last Quarter
May 10
New
May 18
First Quarter
May 25
Full

Hourly Weather History & Observations

Time (CEST) Temp. Windchill Dew Point Humidity Pressure Visibility Wind Dir Wind Speed Gust Speed Precip Events Conditions
12:00 AM 46.4 °F - 42.8 °F 87% 30.01 in 6.2 mi Variable 1.2 mph - N/A   Overcast
12:30 AM 46.4 °F - 42.8 °F 87% 30.01 in 6.2 mi East 1.2 mph - N/A   Overcast
1:00 AM 46.4 °F - 42.8 °F 87% 30.01 in 6.2 mi Variable 2.3 mph - N/A   Overcast
1:30 AM 46.4 °F - 42.8 °F 87% 30.01 in 6.2 mi Variable 2.3 mph - N/A   Overcast
2:00 AM 46.4 °F - 42.8 °F 87% 30.01 in 6.2 mi NNW 2.3 mph - N/A   Overcast
2:30 AM 44.6 °F - 42.8 °F 93% 30.01 in 6.2 mi Variable 1.2 mph - N/A   Overcast
3:00 AM 44.6 °F - 42.8 °F 93% 30.01 in 6.2 mi North 2.3 mph - N/A   Overcast
3:30 AM 44.6 °F 43.1 °F 42.8 °F 93% 30.01 in 6.2 mi Variable 3.5 mph - N/A   Overcast
4:00 AM 44.6 °F - 41.0 °F 87% 30.01 in 6.2 mi Variable 2.3 mph - N/A   Overcast
4:30 AM 44.6 °F - 41.0 °F 87% 30.01 in 6.2 mi Calm Calm - N/A   Overcast
5:00 AM 44.6 °F - 42.8 °F 93% 30.01 in 6.2 mi Calm Calm - N/A   Overcast
5:30 AM 44.6 °F - 42.8 °F 93% 30.01 in 6.2 mi Calm Calm - N/A   Overcast
6:00 AM 44.6 °F - 42.8 °F 93% 30.01 in 6.2 mi Variable 2.3 mph - N/A   Mostly Cloudy
6:30 AM 44.6 °F - 41.0 °F 87% 30.01 in 6.2 mi SSW 2.3 mph - N/A   Mostly Cloudy
7:00 AM 42.8 °F - 39.2 °F 87% 30.01 in 6.2 mi Calm Calm - N/A   Mostly Cloudy
7:30 AM 42.8 °F - 41.0 °F 93% 30.01 in 6.2 mi Variable 1.2 mph - N/A   Mostly Cloudy
8:00 AM 42.8 °F - 42.8 °F 100% 30.04 in 6.2 mi Calm Calm - N/A   Mostly Cloudy
8:30 AM 44.6 °F - 42.8 °F 93% 30.04 in 6.2 mi Calm Calm - N/A   Mostly Cloudy
9:00 AM 46.4 °F - 44.6 °F 93% 30.04 in 6.2 mi Variable 1.2 mph - N/A   Scattered Clouds
9:30 AM 50.0 °F - 42.8 °F 76% 30.04 in 6.2 mi Variable 1.2 mph - N/A   Mostly Cloudy
10:00 AM 51.8 °F - 41.0 °F 67% 30.04 in 6.2 mi NE 6.9 mph - N/A   Mostly Cloudy
10:30 AM 51.8 °F - 41.0 °F 67% 30.04 in 6.2 mi NE 8.1 mph - N/A   Mostly Cloudy
11:00 AM 50.0 °F - 39.2 °F 66% 30.04 in 6.2 mi ENE 6.9 mph - N/A   Mostly Cloudy
11:30 AM 51.8 °F - 39.2 °F 62% 30.04 in 6.2 mi ENE 6.9 mph - N/A   Mostly Cloudy
12:00 PM 51.8 °F - 39.2 °F 62% 30.04 in 6.2 mi NE 5.8 mph - N/A   Mostly Cloudy
12:30 PM 51.8 °F - 37.4 °F 58% 30.04 in 6.2 mi ENE 4.6 mph - N/A   Mostly Cloudy
1:00 PM 53.6 °F - 37.4 °F 54% 30.04 in 6.2 mi ENE 5.8 mph - N/A   Mostly Cloudy
1:30 PM 53.6 °F - 35.6 °F 51% 30.04 in 6.2 mi East 5.8 mph - N/A   Mostly Cloudy
2:00 PM 53.6 °F - 39.2 °F 58% 30.04 in 6.2 mi Variable 4.6 mph - N/A   Mostly Cloudy
2:30 PM 53.6 °F - 35.6 °F 51% 30.01 in 6.2 mi Variable 2.3 mph - N/A   Mostly Cloudy
3:00 PM 53.6 °F - 35.6 °F 51% 30.01 in 6.2 mi NE 4.6 mph - N/A   Mostly Cloudy
3:30 PM 53.6 °F - 37.4 °F 54% 30.01 in 6.2 mi Variable 3.5 mph - N/A   Mostly Cloudy
4:00 PM 55.4 °F - 37.4 °F 51% 29.98 in 6.2 mi Calm Calm - N/A   Mostly Cloudy
4:30 PM 53.6 °F - 37.4 °F 54% 29.98 in 6.2 mi Variable 2.3 mph - N/A   Mostly Cloudy
5:00 PM 53.6 °F - 37.4 °F 54% 29.98 in 6.2 mi ESE 3.5 mph - N/A Rain Light Rain
5:30 PM 51.8 °F - 41.0 °F 67% 29.98 in 6.2 mi SE 4.6 mph - N/A Rain Light Rain
6:00 PM 51.8 °F - 42.8 °F 71% 29.98 in 6.2 mi SE 3.5 mph - N/A Rain Light Rain
6:30 PM 50.0 °F - 42.8 °F 76% 29.98 in 6.2 mi South 4.6 mph - N/A Rain Light Rain
7:00 PM 48.2 °F - 42.8 °F 82% 29.98 in 5.0 mi SSE 4.6 mph - N/A Rain Light Rain
8:00 PM 46.4 °F 45.2 °F 42.8 °F 87% 29.98 in 5.6 mi Variable 3.5 mph - N/A Rain Light Rain
8:30 PM 46.4 °F - 42.8 °F 87% 29.98 in 6.2 mi Variable 2.3 mph - N/A Rain Light Rain
9:00 PM 46.4 °F 45.2 °F 42.8 °F 87% 29.98 in 6.2 mi SSE 3.5 mph - N/A Rain Light Rain
9:30 PM 46.4 °F 45.2 °F 42.8 °F 87% 29.98 in 6.2 mi South 3.5 mph - N/A Rain Light Rain
10:00 PM 46.4 °F - 42.8 °F 87% 29.98 in 5.6 mi SSW 2.3 mph - N/A Rain Light Rain
10:30 PM 46.4 °F 45.2 °F 42.8 °F 87% 29.98 in 5.6 mi West 3.5 mph - N/A Rain Light Rain
11:00 PM 46.4 °F 45.2 °F 42.8 °F 87% 29.98 in 6.2 mi WSW 3.5 mph - N/A Rain Light Rain
11:30 PM 46.4 °F 45.2 °F 42.8 °F 87% 29.98 in 5.6 mi WSW 3.5 mph - N/A   Overcast